Powrót do katalogu

STARLINK-30326

AktywnyŁącznośćVLEO
NORAD 57639·PAYLOAD·🇺🇸 United States

Wystrzelony Aug 17, 2023 z Cape Canaveral Space Force Station

Loading…

Następne Przeloty (najbliższe 24 godziny)

TLE

ŚwieżeSource: CelesTrak SupGP

Epoka: Sep 15, 2026, 02:54 UTC

1 57639C 23122H   26258.12131944  .00001962  00000+0  71044-4 0  2583
2 57639  43.0028 102.6965 0001583 269.4101 246.0827 15.27589885    16

Śledź STARLINK-30326 w czasie rzeczywistym z AllMySat

Download on the App Store